DW2431 Weather Reports


Display with metric or nautical units.
time (UTC)temp
F
wind
direction
speed
MPH
gust
MPH
rain 1hr
in
rain 24hr
in
rain mn
in
humidity
%
barometer
mb
20180718012034 44 300 1.0 3.0 0.00 0.00 0.00 93 1011.6
20180718011018 44 300 1.0 2.0 0.00 0.00 0.00 93 1011.7
20180718010019 44 300 1.0 2.0 0.00 0.00 0.00 93 1011.8
20180718005018 45 300 1.0 3.0 0.00 0.00 0.00 93 1011.7
20180718004018 45 300 1.0 2.0 0.00 0.00 0.00 93 1011.7
20180718003018 45 0.0 2.0 0.00 0.00 0.00 92 1011.8
20180718002019 46 300 2.0 3.0 0.00 0.00 0.00 92 1011.8
20180718001019 46 300 1.0 2.0 0.00 0.00 0.00 92 1011.7
20180718000020 46 300 2.0 3.0 0.00 0.00 0.00 92 1011.8
20180717235018 46 300 2.0 3.0 0.00 0.00 0.00 91 1012.0
20180717234018 46 0.0 0.0 0.00 0.00 0.00 91 1012.2
20180717233018 47 0.0 0.0 0.00 0.00 0.00 91 1012.2
20180717232018 47 0.0 0.0 0.00 0.00 0.00 91 1012.4
20180717231021 47 0.0 0.0 0.00 0.00 0.00 90 1012.3
20180717230017 47 0.0 0.0 0.00 0.00 0.00 90 1012.4
20180717225019 47 300 0.0 1.0 0.00 0.00 0.00 90 1012.4
20180717224019 47 300 0.0 2.0 0.00 0.00 0.00 89 1012.4
20180717223018 48 300 3.0 4.0 0.00 0.00 0.00 88 1012.5
20180717222018 48 300 2.0 4.0 0.00 0.00 0.00 87 1012.5
20180717221018 49 300 1.0 4.0 0.00 0.00 0.00 86 1012.4
20180717220018 50 300 1.0 3.0 0.00 0.00 0.00 85 1012.3
20180717215018 50 300 1.0 2.0 0.00 0.00 0.00 84 1012.2
20180717214020 50 300 1.0 4.0 0.00 0.00 0.00 83 1012.2
20180717213018 51 300 0.0 2.0 0.00 0.00 0.00 83 1012.1
20180717212018 51 300 2.0 4.0 0.00 0.00 0.00 83 1012.2
20180717211018 51 300 1.0 3.0 0.00 0.00 0.00 82 1012.2
20180717210020 51 300 1.0 4.0 0.00 0.00 0.00 82 1012.1
20180717205018 51 300 3.0 4.0 0.00 0.00 0.00 81 1012.2
20180717204018 51 300 1.0 4.0 0.00 0.00 0.00 81 1012.2
20180717203019 51 300 2.0 4.0 0.00 0.00 0.00 82 1012.2
20180717202018 51 304 2.0 5.0 0.00 0.00 0.00 82 1012.2
20180717201018 52 284 4.0 9.0 0.00 0.00 0.00 81 1012.2
20180717200018 51 270 5.0 8.0 0.00 0.00 0.00 82 1012.1
20180717195020 52 312 5.0 9.0 0.00 0.00 0.00 81 1012.0
20180717194020 52 303 7.0 10.0 0.00 0.00 0.00 81 1012.0
20180717193020 52 292 5.0 9.0 0.00 0.00 0.00 81 1012.0
20180717192018 52 288 5.0 10.0 0.00 0.00 0.00 81 1012.0
20180717191018 52 285 4.0 7.0 0.00 0.00 0.00 81 1011.9
20180717190018 52 295 5.0 10.0 0.00 0.00 0.00 80 1011.9
20180717185018 52 306 7.0 10.0 0.00 0.00 0.00 80 1012.1
20180717184018 52 298 4.0 10.0 0.00 0.00 0.00 81 1012.1
20180717183018 52 327 5.0 10.0 0.00 0.00 0.00 81 1012.0
20180717182019 53 315 9.0 12.0 0.00 0.00 0.00 81 1012.1
20180717181020 52 282 7.0 11.0 0.00 0.00 0.00 81 1012.1
20180717180019 52 326 7.0 12.0 0.00 0.00 0.00 81 1012.1
20180717175020 52 317 9.0 13.0 0.00 0.00 0.00 82 1012.0
20180717174020 53 306 7.0 10.0 0.00 0.00 0.00 81 1011.8
20180717173020 54 315 9.0 12.0 0.00 0.00 0.00 80 1011.9
20180717172020 54 310 6.0 11.0 0.00 0.00 0.00 80 1011.8
20180717171020 54 283 8.0 12.0 0.00 0.00 0.00 80 1011.8
20180717170020 54 319 10.0 14.0 0.00 0.00 0.00 79 1011.6
20180717165019 54 314 9.0 11.0 0.00 0.00 0.00 77 1011.7
20180717164020 54 315 6.0 10.0 0.00 0.00 0.00 77 1011.6
20180717163020 55 294 7.0 11.0 0.00 0.00 0.00 76 1011.6
20180717162024 55 297 5.0 11.0 0.00 0.00 0.00 74 1011.6
20180717161020 55 317 10.0 14.0 0.00 0.00 0.00 73 1011.6
20180717160020 54 318 7.0 13.0 0.00 0.00 0.00 71 1011.6
20180717155019 55 314 9.0 11.0 0.00 0.00 0.00 69 1011.6
20180717154020 55 308 7.0 12.0 0.00 0.00 0.00 67 1011.7
20180717153019 55 327 6.0 10.0 0.00 0.00 0.00 66 1011.6
20180717152020 55 328 8.0 12.0 0.00 0.00 0.00 64 1011.8
20180717151019 55 314 6.0 11.0 0.00 0.00 0.00 60 1011.8
20180717150020 56 317 8.0 14.0 0.00 0.00 0.00 57 1011.7
20180717145027 56 303 7.0 11.0 0.00 0.00 0.00 59 1011.7
20180717144019 55 319 4.0 14.0 0.00 0.00 0.00 55 1011.6
20180717143019 55 285 7.0 10.0 0.00 0.00 0.00 49 1011.7
20180717142019 55 298 10.0 14.0 0.00 0.00 0.00 45 1011.8
20180717141020 56 318 8.0 13.0 0.00 0.00 0.00 39 1011.7
20180717140019 56 289 8.0 14.0 0.00 0.00 0.00 37 1011.6
20180717135020 56 322 6.0 13.0 0.00 0.00 0.00 39 1011.7
20180717134019 56 317 6.0 13.0 0.00 0.00 0.00 38 1011.8
20180717133020 56 315 6.0 13.0 0.00 0.00 0.00 37 1011.7
20180717132019 57 310 7.0 11.0 0.00 0.00 0.00 38 1011.7
20180717131019 57 311 5.0 11.0 0.00 0.00 0.00 34 1011.8
20180717130019 56 334 5.0 9.0 0.00 0.00 0.00 35 1011.9
20180717125020 56 301 5.0 9.0 0.00 0.00 0.00 34 1011.9
20180717124019 56 293 5.0 9.0 0.00 0.00 0.00 35 1011.9
20180717123019 56 328 5.0 9.0 0.00 0.00 0.00 33 1011.8
20180717122020 55 302 4.0 8.0 0.00 0.00 0.00 44 1011.8
20180717121019 55 311 5.0 11.0 0.00 0.00 0.00 44 1011.8
20180717120019 56 289 3.0 10.0 0.00 0.00 0.00 45 1011.8
20180717115020 55 271 6.0 10.0 0.00 0.00 0.00 46 1011.7
20180717114020 55 282 6.0 9.0 0.00 0.00 0.00 46 1011.8
20180717113021 55 291 7.0 10.0 0.00 0.00 0.00 51 1011.8
20180717112019 54 309 4.0 9.0 0.00 0.00 0.00 54 1011.7
20180717111019 54 288 2.0 6.0 0.00 0.00 0.00 54 1011.7
20180717110019 54 311 8.0 10.0 0.00 0.00 0.00 54 1011.7
20180717105019 53 298 4.0 9.0 0.00 0.00 0.00 59 1011.7
20180717104019 53 293 6.0 10.0 0.00 0.00 0.00 57 1011.7
20180717103018 53 309 7.0 11.0 0.00 0.00 0.00 55 1011.6
20180717102019 53 298 7.0 11.0 0.00 0.00 0.00 53 1011.6
20180717101019 53 316 8.0 9.0 0.00 0.00 0.00 52 1011.5
20180717100019 53 296 7.0 10.0 0.00 0.00 0.00 53 1011.5
20180717095019 52 291 5.0 10.0 0.00 0.00 0.00 52 1011.5
20180717094019 52 309 6.0 9.0 0.00 0.00 0.00 51 1011.5
20180717093019 52 314 4.0 8.0 0.00 0.00 0.00 53 1011.4
20180717092019 53 301 7.0 11.0 0.00 0.00 0.00 50 1011.4
20180717091019 53 330 7.0 11.0 0.00 0.00 0.00 48 1011.4
20180717090019 53 321 8.0 11.0 0.00 0.00 0.00 46 1011.4
20180717085019 53 346 6.0 11.0 0.00 0.00 0.00 46 1011.3
20180717084019 53 344 8.0 11.0 0.00 0.00 0.00 46 1011.3
20180717083019 53 320 7.0 10.0 0.00 0.00 0.00 49 1011.3
20180717082019 52 349 9.0 11.0 0.00 0.00 0.00 49 1011.3
20180717081019 52 347 7.0 10.0 0.00 0.00 0.00 50 1011.3
20180717080019 51 344 4.0 8.0 0.00 0.00 0.00 54 1011.3
20180717075018 51 349 6.0 9.0 0.00 0.00 0.00 58 1011.3
20180717074019 50 343 5.0 8.0 0.00 0.00 0.00 62 1011.3
20180717073020 49 349 5.0 8.0 0.00 0.00 0.00 66 1011.3
20180717072019 49 350 9.0 12.0 0.00 0.00 0.00 64 1011.2
20180717071018 49 344 6.0 9.0 0.00 0.00 0.00 63 1011.2
20180717070019 48 344 6.0 8.0 0.00 0.00 0.00 66 1011.0
20180717065018 48 341 1.0 2.0 0.00 0.00 0.00 67 1011.0
20180717064019 48 342 2.0 4.0 0.00 0.00 0.00 66 1011.0
20180717063021 47 344 2.0 5.0 0.00 0.00 0.00 68 1010.9
20180717062019 46 353 5.0 8.0 0.00 0.00 0.00 68 1010.9
20180717061019 46 355 2.0 4.0 0.00 0.00 0.00 68 1010.9
20180717060019 46 2 3.0 7.0 0.00 0.00 0.00 67 1010.8
20180717055019 45 0.0 1.0 0.00 0.00 0.00 66 1010.9
20180717054018 44 39 0.0 2.0 0.00 0.00 0.00 67 1010.6
20180717053019 43 0.0 0.0 0.00 0.00 0.00 68 1010.7
20180717052019 44 0.0 0.0 0.00 0.00 0.00 67 1010.5
20180717051019 45 50 1.0 3.0 0.00 0.00 0.00 66 1010.6
20180717050019 45 0.0 3.0 0.00 0.00 0.00 62 1010.4
20180717045018 46 58 2.0 4.0 0.00 0.00 0.00 62 1010.3
20180717044019 45 0.0 1.0 0.00 0.00 0.00 62 1010.3
20180717043019 46 0.0 0.0 0.00 0.00 0.00 61 1010.3
20180717042019 47 59 3.0 4.0 0.00 0.00 0.00 60 1010.3
20180717041019 47 40 2.0 4.0 0.00 0.00 0.00 56 1010.3
20180717040019 46 26 1.0 6.0 0.00 0.00 0.00 56 1010.1
20180717035019 46 38 3.0 4.0 0.00 0.00 0.00 58 1010.1
20180717034018 46 38 0.0 1.0 0.00 0.00 0.00 60 1010.0
20180717033019 46 43 1.0 2.0 0.00 0.00 0.00 60 1009.9
20180717032018 47 19 1.0 3.0 0.00 0.00 0.00 59 1010.0
20180717031018 46 21 8.0 13.0 0.00 0.00 0.00 59 1010.0
20180717030019 45 28 5.0 8.0 0.00 0.00 0.00 62 1010.0
20180717025019 45 0.0 0.0 0.00 0.00 0.00 64 1009.9
20180717024020 45 35 2.0 3.0 0.00 0.00 0.00 63 1009.9
20180717023018 46 35 2.0 4.0 0.00 0.00 0.00 61 1009.8
20180717022018 47 33 5.0 6.0 0.00 0.00 0.00 57 1009.6
20180717021018 47 8 3.0 8.0 0.00 0.00 0.00 57 1009.7
20180717020019 47 5 5.0 11.0 0.00 0.00 0.00 57 1009.7
20180717015019 48 37 4.0 8.0 0.00 0.00 0.00 58 1009.7
20180717014019 48 64 7.0 13.0 0.00 0.00 0.00 60 1009.8
20180717013019 47 56 5.0 7.0 0.00 0.00 0.00 75 1009.6